[Date Prev][Date Next][Thread Prev][Thread Next] - [Date Index][Thread Index][Author Index]

2 Line ISS Keps 11-24



ISS
1 25544U 98067A   03328.51885422  .00029256  00000-0  30120-3 0  8083
2 25544  51.6302 291.5370 0005819 168.4875 297.5281 15.64583144286065


----
Via the sarex mailing list at AMSAT.ORG courtesy of AMSAT-NA.
To unsubscribe, send "unsubscribe sarex" to Majordomo@amsat.org



AMSAT Top AMSAT Home